Weather History for Holdrege, NE

Change the Weather History Date:

Wednesday, May 15, 2013

  Actual Average Record
Temperature  
Mean Temperature 70 °F -  
Max Temperature 84 °F 75 °F 92 °F (1964)
Min Temperature 55 °F 48 °F 32 °F (2014)
Cooling Degree Days 4    
Growing Degree Days 20 (Base 50)    
Moisture  
Dew Point 49 °F    
Average Humidity 49    
Maximum Humidity 73    
Minimum Humidity 29    
Precipitation  
Precipitation 0.00 in - - ()
Sea Level Pressure  
Sea Level Pressure 29.84 in    
Wind  
Wind Speed 14 mph (East)    
Max Wind Speed 26 mph    
Max Gust Speed 34 mph    
Visibility 10 miles    
Events      
Averages and records for this station are not official NWS values.
T = Trace of Precipitation, MM = Missing Value Source: NWS Daily Summary

Daily Weather History Graph

Daily Weather History Graph

Search for Another Location

Airport:

Trip Planner

Search our weather history database for the weather conditions in past years. The results will help you decide how hot, cold, wet, or windy it might be!

Date:

Astronomy

May. 15, 2013 Rise Set
Actual Time 6:20 AM CDT 8:47 PM CDT
Civil Twilight 5:49 AM CDT 9:18 PM CDT
Nautical Twilight 5:11 AM CDT 9:56 PM CDT
Astronomical Twilight 4:28 AM CDT 10:39 PM CDT
Moon 10:58 AM CDT (5/15) 12:34 AM CDT (5/15)
Length of Visible Light 15h 28m
Length of Day
14h 26m
Waxing Crescent, 27% of the Moon is Illuminated
May 15
Waxing Crescent
May 17
First Quarter
May 24
Full
May 31
Last Quarter
Jun 8
New

Hourly Weather History & Observations

Time (CDT) Temp. Heat Index Dew Point Humidity Pressure Visibility Wind Dir Wind Speed Gust Speed Precip Events Conditions
12:16 AM 69.8 °F - 51.8 °F 53% 29.83 in 10.0 mi ENE 12.7 mph - N/A   Clear
12:36 AM 66.2 °F - 51.8 °F 60% 29.84 in 10.0 mi ENE 9.2 mph - N/A   Clear
12:56 AM 66.2 °F - 51.8 °F 60% 29.84 in 10.0 mi ENE 10.4 mph - N/A   Clear
1:16 AM 64.4 °F - 51.8 °F 64% 29.84 in 10.0 mi ENE 12.7 mph - N/A   Clear
1:36 AM 64.4 °F - 51.8 °F 64% 29.84 in 10.0 mi ENE 10.4 mph - N/A   Clear
1:56 AM 64.4 °F - 50.0 °F 59% 29.84 in 10.0 mi ENE 10.4 mph - N/A   Clear
2:16 AM 64.4 °F - 48.2 °F 56% 29.84 in 10.0 mi East 10.4 mph - N/A   Clear
2:36 AM 64.4 °F - 48.2 °F 56% 29.83 in 10.0 mi ENE 12.7 mph - N/A   Clear
2:56 AM 62.6 °F - 48.2 °F 59% 29.82 in 10.0 mi ENE 10.4 mph - N/A   Clear
3:16 AM 64.4 °F - 46.4 °F 52% 29.82 in 10.0 mi ENE 13.8 mph - N/A   Clear
3:36 AM 60.8 °F - 48.2 °F 63% 29.83 in 10.0 mi ENE 10.4 mph - N/A   Clear
3:56 AM 60.8 °F - 48.2 °F 63% 29.84 in 10.0 mi North 12.7 mph - N/A   Clear
4:16 AM 59.0 °F - 48.2 °F 67% 29.84 in 10.0 mi North 9.2 mph - N/A   Clear
4:37 AM 57.2 °F - 48.2 °F 72% 29.84 in 10.0 mi NNE 9.2 mph - N/A   Clear
4:56 AM 59.0 °F - 46.4 °F 63% 29.84 in 10.0 mi NNE 9.2 mph - N/A   Clear
5:16 AM 57.2 °F - 46.4 °F 67% 29.86 in 10.0 mi North 8.1 mph - N/A   Clear
5:36 AM 55.4 °F - 46.4 °F 72% 29.85 in 10.0 mi North 8.1 mph - N/A   Clear
5:56 AM 55.4 °F - 46.4 °F 72% 29.84 in 10.0 mi North 9.2 mph - N/A   Clear
6:16 AM 57.2 °F - 42.8 °F 59% 29.84 in 10.0 mi NE 11.5 mph - N/A   Clear
6:36 AM 57.2 °F - 44.6 °F 63% 29.84 in 10.0 mi NE 12.7 mph - N/A   Clear
6:57 AM 59.0 °F - 42.8 °F 55% 29.84 in 10.0 mi NE 13.8 mph - N/A   Clear
7:16 AM 59.0 °F - 42.8 °F 55% 29.84 in 10.0 mi NE 16.1 mph - N/A   Clear
7:36 AM 60.8 °F - 42.8 °F 52% 29.85 in 10.0 mi NE 18.4 mph - N/A   Clear
7:56 AM 60.8 °F - 42.8 °F 52% 29.86 in 10.0 mi NE 19.6 mph 24.2 mph N/A   Clear
8:18 AM 62.6 °F - 44.6 °F 52% 29.87 in 10.0 mi ENE 20.7 mph 27.6 mph N/A   Clear
8:36 AM 64.4 °F - 44.6 °F 49% 29.87 in 10.0 mi ENE 26.5 mph 29.9 mph N/A   Clear
8:56 AM 66.2 °F - 44.6 °F 46% 29.87 in 10.0 mi ENE 26.5 mph 34.5 mph N/A   Clear
9:16 AM 66.2 °F - 44.6 °F 46% 29.87 in 10.0 mi East 24.2 mph 34.5 mph N/A   Clear
9:36 AM 66.2 °F - 44.6 °F 46% 29.88 in 10.0 mi East 18.4 mph - N/A   Clear
9:56 AM 66.2 °F - 44.6 °F 46% 29.89 in 10.0 mi East 21.9 mph 27.6 mph N/A   Clear
10:16 AM 68.0 °F - 44.6 °F 43% 29.91 in 10.0 mi ENE 20.7 mph 25.3 mph N/A   Clear
10:36 AM 71.6 °F - 44.6 °F 38% 29.91 in 10.0 mi ENE 21.9 mph 25.3 mph N/A   Clear
10:59 AM 71.6 °F - 44.6 °F 38% 29.91 in 10.0 mi ENE 21.9 mph 29.9 mph N/A   Clear
11:16 AM 73.4 °F - 44.6 °F 36% 29.91 in 10.0 mi ENE 25.3 mph 32.2 mph N/A   Clear
11:36 AM 75.2 °F - 44.6 °F 34% 29.91 in 10.0 mi ENE 25.3 mph 32.2 mph N/A   Clear
11:56 AM 75.2 °F - 44.6 °F 34% 29.90 in 10.0 mi East 24.2 mph 31.1 mph N/A   Clear
12:16 PM 77.0 °F - 44.6 °F 32% 29.90 in 10.0 mi ENE 26.5 mph 32.2 mph N/A   Clear
12:36 PM 78.8 °F - 44.6 °F 30% 29.88 in 10.0 mi East 23.0 mph 32.2 mph N/A   Clear
12:56 PM 78.8 °F - 46.4 °F 32% 29.88 in 10.0 mi ENE 25.3 mph 31.1 mph N/A   Clear
1:16 PM 78.8 °F - 46.4 °F 32% 29.87 in 10.0 mi East 24.2 mph 33.4 mph N/A   Clear
1:37 PM 78.8 °F - 46.4 °F 32% 29.87 in 10.0 mi East 21.9 mph 29.9 mph N/A   Clear
1:57 PM 80.6 °F - 46.4 °F 30% 29.86 in 10.0 mi East 23.0 mph 27.6 mph N/A   Clear
2:16 PM 80.6 °F - 48.2 °F 32% 29.86 in 10.0 mi East 18.4 mph 26.5 mph N/A   Clear
2:36 PM 82.4 °F - 48.2 °F 30% 29.85 in 10.0 mi East 23.0 mph 26.5 mph N/A   Clear
3:16 PM 84.2 °F - 48.2 °F 29% 29.84 in 10.0 mi East 20.7 mph 28.8 mph N/A   Clear
3:36 PM 84.2 °F - 50.0 °F 30% 29.84 in 10.0 mi ESE 13.8 mph 25.3 mph N/A   Clear
3:56 PM 84.2 °F - 48.2 °F 29% 29.83 in 10.0 mi ESE 15.0 mph 21.9 mph N/A   Clear
4:36 PM 82.4 °F - 50.0 °F 32% 29.82 in 10.0 mi ESE 12.7 mph 19.6 mph N/A   Clear
4:56 PM 82.4 °F - 51.8 °F 35% 29.82 in 10.0 mi ESE 11.5 mph - N/A   Clear
5:16 PM 82.4 °F 81.4 °F 53.6 °F 37% 29.81 in 10.0 mi East 12.7 mph - N/A   Clear
5:36 PM 82.4 °F - 51.8 °F 35% 29.80 in 10.0 mi SE 12.7 mph 17.3 mph N/A   Clear
5:57 PM 82.4 °F - 51.8 °F 35% 29.80 in 10.0 mi SE 9.2 mph - N/A   Clear
6:16 PM 84.2 °F - 51.8 °F 33% 29.79 in 10.0 mi SE 10.4 mph - N/A   Clear
6:36 PM 82.4 °F 81.7 °F 55.4 °F 39% 29.79 in 10.0 mi SE 10.4 mph - N/A   Clear
6:56 PM 82.4 °F 81.4 °F 53.6 °F 37% 29.79 in 10.0 mi SE 11.5 mph - N/A   Clear
7:16 PM 82.4 °F - 51.8 °F 35% 29.79 in 10.0 mi ESE 11.5 mph - N/A   Clear
7:36 PM 82.4 °F - 51.8 °F 35% 29.79 in 10.0 mi SE 9.2 mph - N/A   Clear
7:56 PM 80.6 °F - 51.8 °F 37% 29.79 in 10.0 mi SE 8.1 mph - N/A   Clear
8:18 PM 78.8 °F - 53.6 °F 42% 29.79 in 10.0 mi SE 8.1 mph - N/A   Clear
8:36 PM 77.0 °F - 55.4 °F 47% 29.80 in 10.0 mi SE 8.1 mph - N/A   Clear
8:56 PM 71.6 °F - 55.4 °F 57% 29.81 in 10.0 mi ESE 6.9 mph - N/A   Clear
9:16 PM 69.8 °F - 55.4 °F 60% 29.81 in 10.0 mi ESE 6.9 mph - N/A   Clear
9:36 PM 68.0 °F - 55.4 °F 64% 29.82 in 10.0 mi ESE 9.2 mph - N/A   Clear
9:56 PM 68.0 °F - 57.2 °F 68% 29.82 in 10.0 mi East 10.4 mph - N/A   Clear
10:16 PM 71.6 °F - 57.2 °F 60% 29.83 in 10.0 mi East 9.2 mph - N/A   Clear
10:36 PM 69.8 °F - 57.2 °F 64% 29.84 in 10.0 mi East 10.4 mph - N/A   Clear
10:56 PM 68.0 °F - 57.2 °F 68% 29.84 in 10.0 mi ESE 10.4 mph - N/A   Clear
11:16 PM 66.2 °F - 57.2 °F 73% 29.84 in 10.0 mi SE 9.2 mph - N/A   Clear
11:36 PM 66.2 °F - 55.4 °F 68% 29.85 in 10.0 mi SE 10.4 mph - N/A   Clear
11:56 PM 66.2 °F - 53.6 °F 64% 29.85 in 10.0 mi SSE 9.2 mph - N/A   Clear